This is the latest recevied weather packets stored in our database for station/object K9APR. If no packets are shown the sender has not sent any weather packets the latest 10 day(s).
| Time | Temp. | Humidity | Pressure | Rain* | Wind** | Luminosity | Snow |
|---|---|---|---|---|---|---|---|
| 1787508202 | 23.89° C | 68% | 1015.8 hPa | 0 mm | - | - | - |
| 1787507662 | 23.33° C | 65% | 1016.1 hPa | 0 mm | - | - | - |
| 1787506581 | 23.89° C | 67% | 1016.2 hPa | 0 mm | - | - | - |
| 1787506042 | 23.89° C | 66% | 1016.3 hPa | 0 mm | - | - | - |
| 1787505500 | 23.89° C | 66% | 1016.3 hPa | 0 mm | - | - | - |
| 1787504963 | 23.89° C | 66% | 1016.3 hPa | 0 mm | - | - | - |
| 1787504421 | 23.33° C | 67% | 1016.4 hPa | 0 mm | - | - | - |
| 1787503882 | 23.33° C | 67% | 1016.5 hPa | 0 mm | - | - | - |
| 1787503342 | 23.33° C | 67% | 1016.4 hPa | 0 mm | - | - | - |
| 1787502803 | 23.33° C | 70% | 1016.6 hPa | 0 mm | - | - | - |
| 1787502261 | 23.33° C | 67% | 1016.7 hPa | 0 mm | - | - | - |
| 1787501721 | 22.78° C | 71% | 1016.7 hPa | 0 mm | - | - | - |
| 1787501181 | 22.78° C | 70% | 1016.7 hPa | 0 mm | - | - | - |
| 1787500643 | 22.22° C | 70% | 1016.7 hPa | 0 mm | - | - | - |
| 1787500101 | 22.22° C | 72% | 1016.7 hPa | 0 mm | - | - | - |
| 1787499562 | 21.67° C | 70% | 1016.7 hPa | 0 mm | - | - | - |
| 1787499021 | 21.67° C | 72% | 1016.7 hPa | 0 mm | - | - | - |
| 1787498482 | 21.11° C | 76% | 1016.7 hPa | 0 mm | - | - | - |
| 1787497941 | 21.11° C | 77% | 1016.8 hPa | 0 mm | - | - | - |
| 1787497403 | 20.56° C | 78% | 1016.8 hPa | 0 mm | - | - | - |
| 1787496862 | 20° C | 79% | 1016.8 hPa | 0 mm | - | - | - |
| 1787496322 | 19.44° C | 81% | 1016.8 hPa | 0 mm | - | - | - |
| 1787495782 | 18.89° C | 82% | 1017.1 hPa | 0 mm | - | - | - |
| 1787495316 | 18.89° C | 85% | 1017.1 hPa | 0 mm | - | - | - |
| 1787495277 | 18.89° C | 85% | 1017.1 hPa | 0 mm | - | - | - |
* Rain latest hour (hover to see other rain measurements)
** Current wind speed in m/s (hover to see current wind gust speed)